Flag for South Africa Weather past 2 weeks in Cape Town, South Africa

Now
61 °F

Sunny.


Feels Like: 61 °F
Forecast: 59 / 66 °F
Wind: 7 mph from Southwest

Location: Cape Town International Airport

Current Time: Sep 16, 2014 at 10:13:21 AM

Latest Report: Sep 16, 2014 at 9:00 AM


Visibility: 10 mi

Pressure: 30.01 "Hg

Humidity: 77%

Dew point: 54 °F

Location of Cape TownLocation

Historic Weather in Cape Town — Graph

°F

Cape Town temperature yesterday

Maximum temperature yesterday: 66 °F (at 1:00 PM)
Minimum temperature yesterday: 54 °F (at 6:00 AM)
Average temperature yesterday: 59 °F

Past Weeks' High & Low Weather Summary

 TemperatureHumidityPressure
High86 °F (Sep 1, 1:00 PM)100% (Sep 7, 8:00 AM)30.27 "Hg (Sep 7, 8:00 AM)
Low45 °F (Sep 13, 7:00 AM)17% (Sep 1, 4:00 PM)29.92 "Hg (Sep 4, 4:00 PM)
Average60 °F71%30.09 "Hg
* Reported Sep 1 9:00 AM — Sep 16 9:00 AM, Cape Town, Weather by CustomWeather, © 2014

Note: Actual official high and low records may vary slightly from our data, if they occured in-between our weather recording intervals... More about our weather records

Advertising

Cape Town weather history for previous 24 hours

 ConditionsComfort  
Time TempWeatherWind HumidityBarometerVisibility
9:00 AM
Sep 16
61 °FSunny.7 mph77%30.01 "Hg10 mi
7:00 AM59 °FSunny.10 mph82%30.01 "Hg10 mi
6:00 AM59 °FSunny.10 mph82%30.01 "Hg10 mi
5:00 AM59 °FClear.8 mph82%30.01 "Hg10 mi
4:00 AM57 °FClear.6 mph88%30.04 "Hg10 mi
3:00 AM57 °FClear.5 mph88%30.04 "Hg10 mi
2:00 AM55 °FClear.3 mph94%30.07 "Hg10 mi
1:00 AM55 °FClear.3 mph94%30.07 "Hg10 mi
12:00 AM55 °FClear.3 mph88%30.07 "Hg10 mi
11:00 PM
Sep 15
55 °FClear.2 mph88%30.09 "Hg10 mi
10:00 PM55 °FClear.3 mph88%30.09 "Hg10 mi
9:00 PM59 °FClear.1 mph77%30.09 "Hg10 mi
8:00 PM57 °FClear.2 mph82%30.07 "Hg10 mi
7:00 PM59 °FPassing clouds.6 mph77%30.07 "HgN/A
6:00 PM61 °FClear.10 mph72%30.07 "Hg10 mi
5:00 PM64 °FPassing clouds.9 mph60%30.07 "HgN/A
4:00 PM66 °FSunny.13 mph60%30.07 "Hg10 mi
3:00 PM66 °FSunny.13 mph60%30.07 "Hg10 mi
2:00 PM64 °FPassing clouds.14 mph64%30.07 "HgN/A
1:00 PM66 °FPassing clouds.17 mph64%30.09 "HgN/A
12:00 PM64 °FScattered clouds.17 mph64%30.09 "HgN/A
11:00 AM64 °FPartly sunny.14 mph64%30.09 "HgN/A
10:00 AM61 °FPassing clouds.13 mph68%30.09 "HgN/A
Weather by CustomWeather, © 2014

See weather overviewHow to use our weather pages